sat.trackr.live / text

‹ back to catalog

STARLINK-31036

NORAD 58533 · 2023-192C

PAYLOAD ACTIVE UNKNOWN

§ Identity

Operator
Country
US
Launch date
2023-12-08
Launch site
AFWTR
Launch vehicle
Mass (kg)
RCS (m²)

Purposes: comms

External: N2YO · Heavens-Above · Gunter

§ Orbital elements

Epoch: 2026-09-19T11:27:56.564064Z

Period
93.85 min
Inclination
53.1605°
Eccentricity
0.0001494
Mean motion
15.34398263 rev/d
Perigee alt
461.7 km
Apogee alt
463.7 km
Semi-major
6,840.8 km
B*
8.0487e-5
RAAN
238.4945°
Arg perigee
106.2937°
Mean anomaly
253.8230°
Rev number
15,571

§ Raw data

STARLINK-310361 58533U 23192C   26262.47773801  .00002344  00000+0  80487-4 0  99992 58533  53.1605 238.4945 0001494 106.2937 253.8230 15.34398263155713

JSON: /api/v1/satellites/58533 · /tle

For live sub-satellite position, see the globe view (requires WebGL).

§ Visibility from observer

Set your observer location to see the next 7 days of passes ≥ 10°. The values pass through the URL so the page stays shareable.

No JS? Fill the form by hand. The geolocation button needs JavaScript.